Find STARLINK-37749

NORAD ID: 799501002 Int'l Des: 2026-143C Constellation: starlink operational

Current View

Loading 3D Globe...

About STARLINK-37749

STARLINK-37749 (NORAD 799501002) is a starlink constellation satellite launched Jun 12, 2026

About STARLINK-37749

Description loading...

Upcoming Passes

Passes for default location (London). Set your location on the main map for personalized predictions.

Altitude History

Loading altitude history...

Two-Line Element Set

1 99999C 2026143C 26172.93451389 .00665210 00000-0 103300-3 0 1726
2 99999 97.2831 215.7718 0010834 276.4737 159.1935 16.03679998 12
Epoch: Jun 21, 2026 • Age: 7 hours